Wind_Speed
14 13 14 15 15 16 16 17 16 15 15 14 12 12 11 10 10 9 8 6 5 4 3 2 1 0 0 1 1 2 2 3 3 4 4 4 4 4 6 7 7 7 7 7 6 5 6 6 6
13 14 14 15 16 17 17 17 16 16 16 15 13 12 12 11 10 9 8 7 6 5 4 3 2 1 0 0 1 2 3 3 3 3 5 5 4 5 6 7 8 7 6 6 6 6 6 6 6
13 14 15 16 17 17 18 18 18 17 17 16 14 13 12 12 11 10 8 7 7 5 4 3 3 2 1 0 0 0 1 2 2 3 4 5 5 5 5 7 7 7 7 7 6 6 6 6 6
13 14 14 16 17 17 18 19 19 18 16 15 15 13 13 12 11 10 9 8 7 6 5 4 3 2 1 1 1 0 0 0 1 2 3 4 5 5 6 7 8 8 7 6 5 5 6 6 6
15 15 16 17 18 18 18 18 18 18 16 15 15 13 13 13 12 11 10 9 7 6 5 5 4 2 2 1 1 0 0 0 1 2 3 3 5 6 7 8 7 7 8 7 6 5 6 5 4
14 15 16 17 18 18 18 18 17 18 17 16 15 15 14 14 13 12 11 9 8 7 6 5 4 3 2 1 0 0 1 1 1 2 3 3 5 6 7 7 7 7 8 7 6 6 6 6 4
14 14 17 17 18 18 18 17 17 18 17 17 16 16 15 15 13 12 11 9 8 8 7 5 4 3 2 1 0 0 0 1 1 2 3 3 5 6 6 6 7 7 8 7 7 6 6 6 5
14 15 16 16 17 16 17 17 17 18 18 18 17 16 16 15 14 12 12 10 8 8 7 6 5 4 3 2 1 1 1 1 1 2 3 3 3 4 5 6 7 8 8 7 7 6 6 6 5
13 15 15 15 15 15 15 15 17 17 18 18 18 17 16 15 15 13 12 11 9 8 7 6 6 5 5 3 2 2 1 1 2 2 3 3 3 3 5 6 7 7 7 7 7 6 7 7 5
12 13 12 12 14 14 15 14 15 16 17 18 18 18 17 16 15 13 12 11 10 8 7 6 6 6 5 4 3 2 2 1 1 2 2 3 2 3 4 6 7 7 7 7 7 7 8 7 6
9 10 9 11 13 13 14 14 15 16 17 17 18 17 17 17 16 15 13 12 11 9 8 7 6 6 5 4 3 3 3 2 2 2 2 2 2 3 4 5 6 7 7 7 7 8 7 6 6
6 6 7 9 11 12 13 14 15 15 16 17 17 17 17 17 16 15 14 12 12 10 9 8 6 6 5 5 4 3 3 3 3 2 2 2 1 2 3 4 5 5 6 7 7 7 7 6 5
3 4 5 8 10 12 13 13 14 15 16 16 17 17 17 16 16 15 13 13 12 11 10 9 7 6 6 5 5 4 3 3 3 3 2 1 1 3 3 3 4 4 4 5 6 6 7 7 6
3 3 4 6 9 11 12 12 14 15 16 17 16 16 16 16 16 15 14 13 13 12 11 10 9 7 6 6 5 5 4 4 3 2 2 2 2 3 3 3 3 3 3 4 5 6 6 6 6
4 3 4 6 8 10 10 11 13 14 15 16 15 16 16 15 15 15 14 14 13 13 12 11 10 8 7 6 5 5 4 4 3 2 2 2 2 3 3 3 3 3 3 4 5 6 6 6 6
4 3 4 6 8 9 8 9 11 12 14 15 14 15 16 16 15 15 14 14 13 13 13 12 10 9 8 7 6 5 5 5 4 3 2 2 2 2 2 2 3 3 3 4 5 6 6 6 6
4 2 3 4 6 7 8 9 10 11 13 14 15 15 16 16 15 15 14 13 13 12 11 11 10 9 8 7 6 5 5 5 4 3 2 2 1 1 1 2 2 2 3 4 5 5 6 6 6
2 2 2 0 2 6 8 9 10 10 11 13 14 15 15 15 15 14 14 13 12 12 11 10 9 8 7 7 6 6 5 5 4 4 2 2 2 1 2 2 2 2 3 4 4 5 6 6 6
4 4 4 3 3 6 8 8 10 10 11 11 13 13 13 13 14 14 14 13 13 12 10 9 9 8 7 6 5 6 5 5 4 4 3 2 2 2 1 1 1 2 3 3 4 5 5 6 6
5 6 4 4 6 8 8 8 9 10 11 11 11 12 13 13 12 13 14 13 12 12 10 9 9 7 6 6 5 5 5 4 3 3 3 3 2 2 1 1 0 1 2 3 4 4 5 6 6
6 6 6 7 8 9 8 8 9 10 10 11 11 12 13 11 11 12 12 13 12 11 11 9 8 7 6 5 5 5 4 4 3 3 3 3 3 3 2 1 1 1 1 3 4 4 4 5 6
7 8 9 9 9 9 9 9 9 10 10 10 10 11 11 11 11 11 11 12 11 11 10 9 8 6 5 5 5 5 5 4 3 3 2 3 3 3 3 2 2 2 2 3 4 5 5 6 6
8 10 11 11 10 10 10 10 8 9 10 10 10 10 10 10 11 11 11 12 12 12 10 9 8 6 6 5 5 6 5 4 4 3 3 3 3 3 3 3 2 2 2 3 4 6 6 7 7
8 10 11 11 11 10 10 11 10 8 9 10 9 9 10 10 12 12 12 12 12 12 11 10 7 6 6 6 6 5 5 5 4 4 4 4 4 4 4 4 4 4 4 5 5 6 7 8 8
9 10 11 11 11 11 10 11 9 7 7 7 8 8 9 11 12 13 13 13 13 13 11 10 8 6 6 6 6 6 6 5 4 4 4 4 5 5 5 5 5 5 5 5 6 7 8 8 9
10 11 12 13 12 11 11 11 9 7 7 8 8 9 10 11 12 13 14 14 14 12 11 10 9 7 7 6 6 6 6 6 5 5 4 5 5 6 7 6 6 6 6 7 7 7 7 8 9
11 11 12 14 14 14 14 12 9 9 7 8 9 10 11 12 12 13 13 14 13 13 12 11 10 8 7 7 6 6 6 6 6 6 6 6 7 7 7 7 7 7 8 9 9 8 8 9 10
13 13 13 14 15 15 14 13 10 10 10 9 10 11 12 12 12 13 14 14 13 13 12 12 11 10 8 8 8 8 7 8 8 8 8 8 9 9 9 10 10 10 10 9 9 9 9 9 10
15 15 15 16 15 15 15 14 13 13 12 12 11 12 13 14 13 14 15 15 14 14 13 14 12 10 9 9 9 9 9 9 10 10 10 10 10 11 11 11 11 11 11 12 12 11 11 11 11
18 17 16 17 17 17 16 16 15 15 15 14 14 14 14 14 15 16 16 16 15 15 14 14 14 13 12 11 11 12 11 12 12 12 13 13 13 13 13 14 13 13 14 14 14 14 14 13 13
Wind_Direction
81 77 76 69 56 50 49 48 43 39 38 37 33 27 24 20 16 12 15 11 3 6 9 17 36 86 300 102 146 197 191 204 212 211 213 212 216 210 200 201 203 198 195 196 196 189 173 170 168
78 74 74 66 55 51 50 45 43 40 38 36 31 27 23 19 13 16 16 14 11 12 12 17 22 40 41 52 131 155 168 191 208 214 218 217 220 209 204 203 211 206 203 200 200 196 188 178 173
76 71 66 60 54 50 48 43 39 37 35 31 29 27 23 17 14 20 19 17 15 14 12 17 34 38 40 26 70 136 186 180 205 214 217 221 216 207 209 204 206 207 203 201 203 200 196 194 183
77 74 63 53 51 46 41 38 33 32 29 27 26 26 25 24 24 24 23 22 18 19 17 22 25 32 56 37 27 70 59 223 202 208 223 216 209 202 198 199 198 199 197 202 205 210 199 201 188
81 74 64 52 48 43 38 34 31 28 26 25 27 26 28 29 26 28 27 24 24 29 28 30 34 38 60 55 48 1 331 282 235 223 225 208 204 201 197 197 196 197 200 205 206 203 200 199 199
79 69 61 50 47 43 37 33 28 29 27 26 27 27 31 32 27 26 25 25 28 32 33 39 38 44 45 47 64 262 237 245 262 246 231 212 205 201 196 190 193 195 197 199 198 201 202 198 197
78 70 58 49 48 43 37 32 28 30 30 30 30 30 33 32 27 29 30 30 32 33 32 33 35 37 45 43 41 260 242 221 224 233 226 191 196 192 190 192 198 193 191 193 200 201 203 195 193
75 71 58 49 45 42 37 30 25 29 31 32 32 31 33 33 31 30 29 29 31 31 33 31 31 28 32 26 55 26 295 248 244 236 224 190 185 192 199 193 197 197 196 192 197 198 204 198 195
73 65 54 46 44 39 36 31 29 30 32 33 34 33 33 32 31 31 30 29 33 31 30 31 35 36 39 47 44 27 2 291 271 240 230 221 181 194 206 191 193 197 197 193 195 195 198 199 198
69 59 51 45 44 39 39 36 32 31 31 31 34 35 35 34 32 33 34 32 35 34 31 33 35 38 43 53 43 35 30 340 289 210 208 203 207 204 188 187 194 200 200 196 197 197 194 198 200
75 62 54 50 44 40 44 39 32 30 30 29 30 31 32 34 31 32 35 35 35 32 31 32 31 42 52 56 59 57 67 51 64 107 143 170 198 191 186 192 193 194 196 199 199 197 197 199 197
100 77 57 48 46 41 39 38 34 29 27 27 26 25 28 28 28 29 30 32 31 29 32 32 29 38 46 52 55 55 71 69 78 100 115 154 182 181 187 196 196 194 194 199 204 198 197 198 196
123 79 44 38 42 38 33 32 30 28 26 26 25 23 22 23 25 26 27 29 30 30 28 29 31 37 45 59 61 56 56 73 95 106 108 119 147 156 149 172 192 202 200 202 207 209 197 197 201
122 81 58 45 39 35 30 23 24 23 23 22 23 23 23 22 25 27 28 28 27 27 26 32 36 41 46 57 62 61 63 72 99 107 96 117 130 145 147 166 179 187 185 192 199 200 196 198 204
141 88 62 54 46 32 23 18 16 18 19 18 19 22 22 24 25 26 27 28 27 26 29 30 33 37 40 44 51 62 75 73 79 87 88 110 119 138 165 178 182 183 179 190 194 196 204 203 207
135 114 77 59 47 26 13 7 4 11 13 14 14 15 20 22 24 24 24 26 28 27 27 28 30 32 35 40 48 63 81 84 77 73 78 96 108 140 179 191 189 191 187 189 191 194 201 203 210
138 123 104 60 33 5 356 357 357 360 3 9 11 13 16 20 22 22 22 22 24 24 24 24 27 30 32 40 51 58 71 75 77 79 85 95 90 128 166 188 197 186 181 181 189 192 203 210 217
151 199 209 328 359 338 333 343 349 352 356 3 8 10 11 17 19 20 20 19 20 20 20 20 21 26 30 38 50 56 57 60 66 66 79 87 66 109 140 168 175 179 179 182 195 205 217 227 232
227 240 254 284 307 307 313 326 335 340 347 353 358 6 12 17 19 19 19 20 19 19 21 21 21 23 29 35 46 49 49 53 57 61 75 76 56 42 105 141 165 195 199 203 213 221 226 235 238
236 241 260 290 291 288 298 311 326 329 334 339 349 359 5 8 13 16 16 16 16 15 15 15 16 18 21 24 36 42 42 43 41 43 43 41 35 14 23 42 272 229 226 228 229 234 237 241 239
229 249 267 281 279 279 289 307 314 315 319 332 343 348 354 2 6 12 11 12 12 13 13 12 12 12 16 18 17 22 24 23 21 23 23 18 17 7 10 345 323 299 247 237 242 241 246 248 245
237 250 261 264 263 270 278 294 305 313 313 328 338 346 353 356 2 4 7 8 8 6 7 4 360 358 356 358 1 360 0 1 359 359 357 350 354 1 354 335 292 270 266 258 252 253 254 255 256
254 258 260 263 262 261 259 271 295 308 315 324 331 336 343 348 352 356 359 2 2 2 0 359 353 345 339 338 348 351 342 337 334 331 330 325 331 340 338 324 315 270 266 266 257 257 255 258 260
265 268 264 261 261 257 259 267 278 295 308 319 324 329 339 340 347 351 353 353 356 356 353 352 345 337 330 332 333 332 332 326 318 317 313 310 311 317 322 323 312 300 284 271 266 268 262 261 263
261 270 266 267 264 263 270 282 289 299 303 314 319 324 332 334 338 343 344 344 344 345 344 345 341 332 327 328 328 322 316 314 316 310 306 305 306 305 303 307 309 304 297 291 279 274 275 271 266
262 269 278 279 279 271 275 286 289 295 300 302 308 316 321 324 327 328 334 335 336 338 337 335 333 327 320 320 318 317 315 307 299 302 301 300 302 302 296 296 294 290 289 291 289 285 282 276 274
258 267 278 282 282 284 279 278 271 289 296 292 294 305 310 314 321 321 327 330 330 334 332 327 325 320 314 312 310 308 309 307 298 294 292 291 294 302 303 300 298 294 286 284 286 288 285 284 280
253 260 271 277 284 281 277 274 279 289 286 285 288 297 304 306 312 318 320 323 321 326 326 324 316 314 310 303 301 302 302 300 296 293 291 289 289 294 297 295 290 288 287 287 289 293 295 292 286
248 254 262 268 274 279 277 278 285 286 287 289 293 298 300 297 299 309 315 315 314 314 316 318 311 306 304 297 296 297 296 292 292 293 291 287 287 287 288 289 288 286 289 292 295 288 288 288 286
247 256 258 263 271 274 276 280 286 285 282 286 289 293 293 292 293 300 306 306 306 305 306 309 306 302 303 296 297 295 292 291 292 294 292 290 287 285 288 287 289 289 290 292 293 290 289 283 280
Height
5909 5908 5908 5908 5908 5906 5905 5904 5904 5903 5902 5901 5900 5899 5897 5896 5896 5896 5893 5890 5889 5889 5888 5887 5887 5888 5889 5889 5889 5889 5889 5890 5890 5890 5891 5891 5891 5892 5892 5892 5893 5894 5895 5896 5897 5898 5898 5899 5900
5910 5910 5910 5910 5908 5907 5906 5906 5905 5905 5903 5901 5900 5899 5898 5896 5894 5893 5891 5890 5889 5889 5888 5887 5888 5888 5888 5889 5889 5888 5889 5889 5889 5890 5890 5891 5891 5891 5891 5891 5892 5893 5894 5895 5896 5897 5898 5899 5900
5912 5911 5912 5911 5909 5909 5908 5907 5906 5905 5904 5903 5901 5900 5898 5896 5894 5893 5891 5890 5889 5888 5888 5887 5887 5888 5888 5888 5888 5889 5888 5888 5889 5889 5890 5889 5889 5889 5889 5890 5891 5893 5894 5895 5896 5897 5898 5899 5900
5914 5914 5914 5912 5910 5910 5909 5908 5907 5907 5905 5904 5902 5901 5898 5896 5894 5893 5891 5890 5889 5888 5888 5887 5887 5887 5888 5888 5888 5888 5888 5888 5888 5888 5888 5888 5888 5888 5888 5889 5890 5891 5893 5894 5895 5897 5898 5899 5899
5916 5916 5915 5913 5912 5912 5911 5910 5909 5909 5907 5904 5903 5901 5899 5897 5894 5892 5891 5890 5889 5888 5888 5887 5887 5887 5888 5888 5888 5888 5888 5888 5888 5888 5887 5887 5887 5887 5887 5888 5889 5890 5892 5893 5894 5896 5898 5898 5899
5918 5918 5917 5915 5914 5914 5913 5912 5911 5910 5908 5905 5904 5902 5899 5897 5895 5893 5892 5891 5890 5889 5888 5887 5887 5887 5887 5888 5888 5888 5887 5887 5887 5887 5886 5885 5885 5885 5886 5887 5888 5889 5891 5892 5894 5896 5897 5898 5899
5921 5919 5918 5917 5916 5916 5915 5914 5912 5911 5909 5907 5905 5903 5900 5898 5896 5894 5892 5891 5890 5889 5888 5887 5887 5887 5887 5887 5887 5887 5887 5887 5886 5886 5885 5884 5884 5884 5885 5886 5887 5889 5890 5892 5894 5895 5896 5897 5898
5921 5921 5920 5919 5919 5918 5917 5916 5914 5912 5910 5908 5906 5904 5902 5900 5897 5895 5893 5892 5891 5889 5888 5887 5887 5887 5887 5886 5886 5886 5886 5886 5885 5885 5884 5883 5883 5883 5884 5885 5886 5888 5889 5891 5893 5894 5895 5897 5898
5922 5923 5921 5921 5920 5920 5918 5917 5915 5913 5911 5909 5907 5905 5903 5901 5898 5896 5895 5893 5892 5890 5889 5888 5887 5887 5886 5886 5886 5885 5885 5885 5884 5884 5884 5883 5883 5883 5883 5884 5885 5887 5889 5890 5892 5893 5895 5896 5897
5923 5923 5923 5923 5922 5920 5920 5918 5916 5915 5913 5911 5909 5907 5905 5902 5900 5897 5896 5894 5892 5891 5890 5888 5888 5887 5886 5885 5885 5884 5884 5884 5883 5883 5883 5883 5883 5883 5883 5883 5884 5886 5888 5889 5891 5892 5894 5895 5896
5924 5924 5924 5923 5923 5922 5921 5920 5918 5916 5915 5913 5911 5909 5906 5904 5902 5899 5897 5895 5893 5892 5891 5889 5888 5887 5886 5885 5884 5884 5884 5884 5883 5883 5883 5883 5883 5883 5883 5883 5884 5885 5887 5888 5890 5891 5893 5894 5896
5925 5924 5924 5923 5923 5923 5922 5921 5920 5918 5916 5914 5912 5909 5908 5906 5903 5901 5899 5897 5895 5893 5891 5890 5888 5887 5886 5885 5884 5884 5883 5883 5883 5883 5883 5883 5883 5883 5883 5884 5884 5885 5886 5887 5889 5890 5892 5893 5895
5925 5925 5924 5924 5924 5923 5922 5922 5921 5919 5917 5915 5913 5911 5909 5907 5904 5902 5900 5898 5896 5894 5892 5890 5889 5887 5886 5885 5885 5884 5883 5883 5883 5883 5883 5883 5883 5883 5883 5884 5884 5885 5886 5887 5888 5889 5891 5892 5894
5926 5926 5925 5925 5925 5924 5924 5923 5922 5920 5918 5916 5915 5913 5910 5908 5906 5904 5901 5899 5897 5895 5893 5891 5889 5888 5887 5886 5885 5883 5883 5883 5883 5883 5883 5883 5883 5883 5883 5884 5884 5885 5885 5886 5887 5888 5890 5892 5893
5926 5926 5926 5926 5926 5925 5925 5924 5922 5920 5919 5918 5916 5914 5911 5909 5906 5905 5903 5900 5898 5896 5893 5891 5890 5888 5887 5886 5885 5883 5883 5883 5883 5883 5883 5882 5882 5883 5883 5884 5884 5885 5885 5885 5886 5888 5889 5891 5892
5926 5927 5926 5926 5925 5925 5927 5925 5923 5921 5920 5919 5917 5914 5912 5909 5907 5905 5903 5901 5899 5897 5895 5892 5890 5889 5888 5886 5884 5884 5883 5883 5883 5883 5883 5882 5882 5883 5883 5884 5884 5885 5885 5885 5886 5887 5888 5890 5891
5926 5926 5926 5926 5925 5925 5925 5924 5923 5921 5920 5919 5917 5915 5912 5910 5908 5906 5904 5902 5900 5898 5896 5894 5891 5890 5888 5887 5885 5884 5884 5883 5883 5883 5883 5883 5883 5883 5883 5883 5884 5884 5885 5885 5886 5887 5888 5889 5890
5925 5925 5925 5925 5924 5924 5924 5923 5923 5921 5920 5919 5917 5915 5913 5911 5909 5907 5904 5903 5900 5898 5896 5894 5892 5890 5889 5888 5886 5885 5885 5885 5884 5883 5883 5883 5883 5883 5883 5883 5884 5884 5885 5886 5886 5887 5888 5889 5889
5924 5924 5924 5924 5924 5923 5923 5922 5921 5920 5919 5918 5917 5915 5913 5912 5910 5907 5905 5903 5901 5899 5897 5895 5893 5891 5889 5888 5888 5887 5886 5886 5885 5885 5884 5884 5884 5884 5884 5883 5884 5884 5885 5885 5886 5886 5887 5887 5888
5923 5923 5923 5924 5923 5922 5921 5921 5920 5919 5918 5918 5917 5916 5914 5912 5910 5908 5906 5903 5901 5899 5897 5895 5893 5891 5890 5889 5888 5888 5887 5886 5886 5885 5885 5885 5884 5884 5883 5883 5884 5884 5884 5884 5885 5885 5885 5886 5886
5921 5922 5922 5923 5922 5921 5921 5921 5920 5918 5917 5917 5916 5915 5913 5912 5910 5908 5906 5904 5901 5899 5897 5895 5893 5891 5890 5890 5889 5888 5887 5887 5886 5886 5886 5885 5885 5884 5884 5883 5883 5883 5883 5884 5884 5884 5884 5884 5885
5920 5921 5921 5921 5921 5920 5920 5918 5918 5916 5915 5915 5915 5914 5913 5911 5910 5908 5906 5903 5901 5898 5896 5894 5893 5891 5890 5889 5889 5888 5888 5887 5887 5886 5886 5885 5885 5884 5883 5883 5882 5882 5882 5882 5882 5883 5883 5883 5883
5918 5918 5919 5919 5919 5918 5917 5916 5917 5914 5913 5913 5913 5912 5911 5910 5909 5907 5904 5902 5900 5898 5896 5894 5892 5891 5889 5888 5888 5888 5887 5887 5886 5886 5885 5885 5884 5884 5883 5882 5882 5881 5881 5881 5881 5881 5881 5881 5881
5916 5916 5916 5916 5916 5916 5915 5915 5915 5913 5912 5912 5911 5910 5910 5909 5907 5905 5903 5901 5899 5897 5895 5893 5891 5890 5889 5888 5887 5887 5886 5886 5885 5885 5884 5884 5883 5883 5882 5881 5880 5880 5879 5879 5879 5879 5878 5878 5878
5914 5914 5914 5914 5913 5913 5913 5912 5913 5911 5910 5910 5909 5909 5908 5907 5905 5904 5902 5900 5898 5895 5893 5891 5890 5888 5888 5887 5886 5886 5885 5884 5884 5883 5883 5882 5882 5881 5881 5880 5879 5879 5878 5877 5877 5877 5876 5875 5875
5911 5912 5912 5912 5911 5911 5911 5910 5911 5909 5908 5908 5907 5906 5906 5905 5904 5902 5901 5898 5896 5894 5892 5890 5888 5887 5886 5886 5885 5885 5884 5883 5882 5882 5881 5881 5880 5879 5879 5878 5878 5877 5876 5875 5875 5874 5873 5873 5872
5908 5909 5909 5908 5908 5907 5907 5907 5907 5906 5905 5905 5904 5904 5903 5903 5902 5900 5899 5897 5895 5893 5891 5889 5887 5886 5885 5884 5884 5883 5882 5881 5880 5880 5879 5878 5878 5877 5877 5876 5875 5874 5874 5873 5872 5871 5870 5870 5869
5906 5906 5906 5905 5904 5903 5903 5904 5903 5902 5902 5902 5901 5900 5900 5899 5898 5897 5896 5894 5893 5891 5889 5887 5886 5884 5883 5883 5882 5881 5880 5880 5878 5877 5877 5876 5875 5874 5874 5873 5872 5871 5870 5869 5869 5868 5868 5867 5866
5902 5902 5902 5901 5901 5900 5900 5902 5900 5899 5898 5898 5898 5897 5896 5895 5894 5893 5893 5892 5890 5889 5887 5885 5883 5882 5881 5880 5880 5879 5878 5877 5876 5875 5874 5873 5872 5871 5870 5870 5869 5868 5867 5866 5865 5865 5864 5863 5862
5897 5897 5898 5898 5897 5896 5896 5899 5896 5896 5895 5894 5894 5893 5892 5891 5891 5890 5889 5888 5887 5886 5884 5883 5881 5878 5877 5876 5876 5875 5874 5873 5872 5871 5870 5869 5868 5868 5867 5866 5865 5864 5863 5862 5861 5861 5859 5859 5858